GFSCGP_850_rhum_099.txt.gz
RH
26 20 18 17 23 23 25 26 34 24 18 21 22 21 15 13 15 15 16 16 17 17 16 15 15 14 15 20 29 43 62 86 87 68 59 58 58 62 65 72 96 99 94 82
23 19 12 14 16 24 28 72 56 30 21 22 21 22 17 15 14 15 16 17 17 17 17 16 17 17 17 18 25 36 54 79 83 71 64 67 66 73 91 71 97 99 97 84
29 14 10 13 16 22 38 56 42 32 24 25 24 25 20 15 14 15 16 16 16 16 18 19 19 19 20 21 30 32 44 64 82 72 96 97 99 99 98 88 100 93 89 90
25 11 14 15 18 18 30 28 30 29 40 50 21 30 18 15 15 14 14 17 22 28 31 31 31 29 25 22 25 38 42 56 76 93 90 89 91 96 95 97 95 88 89 88
32 14 16 19 20 20 24 21 28 33 28 26 24 32 21 15 16 14 18 26 32 35 37 39 38 37 33 26 24 40 48 54 73 93 84 93 87 88 90 87 90 80 94 92
25 17 17 17 18 20 22 23 21 22 21 32 22 23 24 17 14 19 28 32 34 37 42 43 45 44 41 33 27 40 57 66 81 80 90 93 88 79 80 90 96 98 94 98
44 54 19 18 26 27 26 30 47 48 44 40 22 28 20 24 30 33 33 31 33 39 44 47 49 53 57 48 30 41 64 95 95 98 94 93 89 81 81 93 97 92 91 98
63 70 29 29 29 36 29 30 56 56 55 39 22 25 18 23 27 31 30 33 37 42 47 52 60 70 75 61 41 47 69 100 100 99 96 94 90 85 81 93 96 94 91 100
60 38 37 31 25 25 31 38 33 58 39 36 27 29 31 28 28 28 30 37 49 46 53 60 73 88 84 75 49 54 87 98 99 98 99 97 93 87 79 92 93 95 99 98
26 56 28 30 31 26 31 27 46 41 48 36 25 28 49 44 37 32 34 45 55 54 61 71 87 99 95 65 48 59 87 97 99 99 99 100 94 87 86 92 97 93 94 92
22 43 32 32 40 36 34 41 35 31 37 55 55 54 38 35 32 37 46 56 57 62 72 83 99 100 98 77 52 93 91 98 97 100 100 99 99 98 92 93 96 100 94 95
23 37 43 38 24 39 25 37 33 51 47 38 51 65 33 25 30 52 54 63 64 70 77 90 100 100 100 99 100 96 91 98 98 100 100 98 100 100 96 98 98 98 99 96
41 41 45 54 39 43 40 41 28 39 46 52 54 62 23 31 42 66 71 77 76 77 81 92 94 98 99 99 100 100 100 100 99 100 100 98 99 100 98 99 95 92 96 97
59 44 33 46 41 31 47 34 34 36 43 40 36 31 43 56 66 82 87 90 92 95 97 99 89 94 99 100 100 98 100 100 100 100 100 100 99 98 98 99 96 92 98 98
65 82 80 38 26 30 38 45 42 45 33 41 35 32 63 72 83 87 90 93 96 98 100 100 100 96 96 99 100 100 100 100 100 100 100 100 100 99 99 98 98 93 96 100
58 50 44 38 32 30 31 25 23 24 27 29 28 55 51 64 77 92 98 99 99 100 100 100 98 100 98 98 100 100 100 100 100 100 100 100 100 100 99 98 100 95 96 96
49 41 47 44 25 24 40 28 22 26 30 31 47 58 59 75 91 97 99 100 100 99 100 99 100 99 100 99 99 99 100 100 100 100 100 100 100 100 100 100 99 100 98 97
47 32 34 40 31 41 34 28 27 34 42 43 39 46 59 89 100 98 99 100 98 100 99 100 100 99 99 100 99 100 99 99 100 100 100 100 100 100 100 100 100 100 100 100
39 38 36 36 35 38 38 42 43 40 70 49 52 56 78 95 94 99 98 98 99 99 100 99 99 100 100 100 100 100 99 100 99 97 98 99 100 100 99 100 99 100 99 100
35 36 39 39 34 52 88 51 41 36 71 63 60 68 84 91 100 95 98 98 98 98 95 93 95 88 97 100 100 100 100 100 98 98 99 99 97 96 97 99 98 100 93 100
44 50 53 47 43 64 86 60 50 54 98 83 80 83 84 91 97 98 98 98 97 90 86 90 94 97 99 100 100 99 100 99 100 97 98 96 99 99 98 99 100 99 97 96
63 76 60 56 51 74 91 57 80 99 99 99 97 93 98 100 100 99 98 96 96 96 79 81 89 99 99 99 97 99 98 100 100 98 99 96 86 96 96 89 84 91 94 94
79 77 83 90 94 98 95 96 100 99 100 98 98 100 100 100 98 97 96 93 95 82 76 78 84 94 99 100 100 100 99 98 100 98 100 99 99 91 88 92 94 89 90 90
74 58 95 95 92 85 88 91 99 100 99 98 99 98 96 99 99 97 97 91 82 78 80 82 85 89 99 100 100 100 100 100 96 95 94 84 88 92 92 92 92 94 95 93
67 61 76 94 85 86 88 98 98 98 96 94 92 91 87 84 82 79 76 78 80 80 82 88 93 97 100 100 100 100 100 100 100 100 100 100 95 88 85 82 95 91 94 94
71 87 90 95 98 95 98 100 100 98 98 89 86 82 82 80 79 80 82 84 84 89 91 93 100 100 100 99 95 94 100 100 100 100 100 100 100 100 99 90 92 91 89 87

GFSCGP_850_rhum_102.txt.gz
RH
25 37 36 20 20 21 22 22 24 20 32 30 27 20 16 14 14 15 14 14 14 14 14 13 12 11 11 13 16 34 49 45 40 60 54 96 72 67 55 59 86 99 79 73
20 51 34 17 12 14 19 26 27 39 35 36 38 44 30 16 16 14 14 15 16 16 16 16 16 15 14 14 16 24 52 56 48 59 62 95 96 67 63 66 76 74 80 84
19 24 33 20 16 12 17 23 42 43 44 70 62 61 38 22 15 14 15 15 15 16 17 17 18 19 21 20 20 18 29 61 58 58 88 99 100 98 96 93 85 92 92 88
15 12 30 22 15 12 21 17 34 40 79 85 33 62 30 22 20 17 15 16 16 17 25 25 28 28 29 28 24 28 24 37 64 60 79 98 93 94 93 96 92 89 89 89
18 18 30 28 12 10 17 18 31 31 55 66 50 75 40 21 19 18 16 20 29 31 35 37 37 37 37 37 33 28 30 31 52 60 69 81 94 96 94 96 92 93 83 79
15 16 49 28 16 11 15 40 42 43 48 92 59 53 32 24 22 19 22 28 32 34 39 42 44 46 47 48 46 41 33 34 43 52 72 80 88 91 91 93 93 89 80 79
25 30 36 19 21 19 26 44 56 71 88 66 28 29 30 23 18 26 30 29 37 42 46 48 52 56 62 63 55 54 44 41 48 56 76 81 92 85 85 86 84 76 65 75
31 94 68 31 18 26 30 36 58 50 50 39 22 63 50 30 28 29 33 45 45 43 51 56 64 73 83 86 82 71 54 48 56 69 85 84 94 83 82 79 79 80 64 77
92 98 39 23 19 26 28 36 34 99 67 89 51 71 45 48 32 35 39 47 49 51 59 64 75 90 99 97 81 74 52 60 65 80 87 93 87 83 82 80 89 82 81 80
66 91 34 32 26 27 32 30 72 93 96 96 46 52 64 60 41 42 50 52 60 63 66 72 86 99 100 100 98 60 53 72 72 80 90 88 92 87 86 83 84 86 87 87
52 60 41 46 85 47 42 69 70 67 56 77 69 98 78 67 61 57 59 65 68 69 72 81 96 99 100 100 100 93 84 83 86 85 82 86 100 90 86 85 86 89 88 88
28 50 50 37 57 40 39 52 50 86 42 66 94 100 68 62 54 63 68 74 79 84 89 95 100 97 98 100 100 99 99 100 90 85 85 98 100 94 89 95 92 91 88 90
60 48 89 53 40 66 51 47 38 47 77 54 71 100 59 66 74 77 82 86 86 91 98 100 100 100 96 99 100 100 99 99 100 96 95 96 100 95 95 98 93 94 94 91
62 62 77 63 46 69 85 81 65 49 83 56 68 81 71 75 80 81 86 91 92 96 100 100 99 100 100 97 99 100 100 100 98 98 100 98 99 98 94 94 95 96 96 96
74 100 78 68 51 45 72 79 67 42 37 90 55 79 80 82 82 92 100 100 97 98 100 100 99 100 100 97 95 99 100 100 100 100 99 100 100 100 99 95 92 90 90 96
71 100 92 91 44 59 55 34 34 29 35 39 69 97 75 82 97 98 100 100 100 100 100 100 100 100 99 100 96 98 99 100 100 100 99 100 100 100 97 94 100 100 100 100
72 58 74 48 29 35 53 33 38 45 45 56 86 85 74 94 94 98 100 100 100 100 100 100 100 100 100 99 100 97 98 100 100 100 100 100 100 100 100 100 100 94 99 98
62 50 46 44 39 82 49 39 52 56 57 47 47 71 84 96 99 98 98 98 99 100 98 96 98 99 100 100 98 100 98 99 100 99 100 100 100 100 100 100 100 100 97 98
36 51 53 60 52 56 53 57 66 84 94 64 59 67 84 96 99 99 98 99 99 95 87 90 98 100 100 100 99 100 100 98 100 100 99 100 100 99 99 98 100 100 100 100
32 44 58 48 47 82 83 61 53 47 98 81 70 71 83 88 99 94 98 97 98 92 80 85 93 100 100 100 100 99 99 99 99 98 100 100 100 99 95 96 99 100 100 98
60 62 67 56 55 81 76 61 56 68 99 92 85 85 88 92 97 98 98 97 97 96 75 82 91 100 100 100 100 99 98 97 97 100 99 99 100 99 100 97 98 100 99 99
67 81 75 74 73 89 80 60 81 98 99 99 99 100 99 97 97 98 96 96 94 94 72 77 88 97 100 100 100 100 98 100 98 99 98 100 100 99 99 97 97 99 98 100
85 71 73 84 93 94 89 94 97 99 100 98 98 95 99 99 96 91 86 80 77 76 76 80 85 95 100 100 100 100 100 98 100 98 97 97 98 99 96 98 96 99 99 95
67 52 86 89 86 85 90 94 98 99 98 94 88 86 90 92 90 83 78 73 72 75 80 85 90 97 100 100 100 99 100 100 95 94 92 95 93 95 97 98 98 97 96 97
62 58 73 88 81 83 91 97 96 92 86 83 82 78 77 76 75 76 75 76 79 81 86 95 100 100 100 100 100 100 98 100 100 100 100 95 89 90 91 91 91 89 92 96
72 83 82 89 98 92 99 99 100 87 78 73 73 72 73 73 76 79 84 86 87 92 96 100 100 100 100 98 94 98 100 100 100 100 100 100 100 98 90 90 89 94 93 88

GFSCGP_850_rhum_105.txt.gz
RH
20 23 34 54 28 26 24 31 34 25 20 40 46 38 33 24 22 19 18 17 16 15 14 14 14 12 10 10 13 22 36 41 50 58 52 44 54 90 82 75 73 72 66 64
52 33 18 18 41 34 25 28 31 24 23 64 81 74 59 54 44 34 23 17 16 16 15 15 14 13 10 10 13 20 24 40 46 48 51 49 54 89 99 92 86 85 71 71
57 61 26 16 30 60 37 24 22 22 59 72 76 72 59 45 34 30 25 15 15 15 17 18 22 24 24 24 29 44 34 45 43 42 51 62 68 94 98 96 90 89 76 79
59 48 48 32 43 63 32 18 16 18 73 94 81 87 60 45 37 29 23 16 16 23 32 34 37 37 37 40 38 43 64 53 50 49 50 43 49 57 78 94 92 85 87 88
74 41 33 26 18 41 48 20 19 19 91 80 96 98 73 54 50 26 22 40 44 44 46 49 48 48 48 45 45 42 49 68 49 51 55 47 43 58 59 94 94 99 96 100
71 31 24 40 39 43 41 54 64 74 67 92 65 74 61 52 45 27 47 52 46 52 53 52 50 47 45 46 45 43 46 43 74 50 44 55 52 56 74 90 91 100 99 99
50 27 18 38 56 54 43 51 94 96 98 88 48 72 50 36 36 47 52 51 60 62 61 57 52 46 41 37 40 44 46 46 64 81 43 48 53 67 69 77 86 91 96 92
39 61 38 36 42 59 56 57 85 79 86 65 39 59 44 42 58 57 57 68 67 70 70 67 66 60 55 51 48 48 45 49 66 100 62 51 68 79 76 87 85 84 86 84
78 81 53 52 46 42 45 59 50 81 94 88 56 70 47 60 81 62 73 70 73 76 81 81 74 76 81 88 92 94 68 45 58 91 84 63 76 87 90 87 88 86 82 77
85 92 62 42 31 28 32 39 67 96 91 93 80 81 84 88 94 80 74 77 86 92 89 88 87 90 93 98 98 100 99 57 58 60 93 62 68 75 89 87 79 84 81 73
79 100 66 47 71 45 48 90 81 79 87 97 96 99 92 92 90 85 81 87 92 95 98 99 100 99 99 99 100 100 100 94 86 89 80 76 72 75 91 85 82 82 81 74
74 76 69 56 59 51 58 65 79 89 99 100 98 99 95 87 77 78 80 86 91 95 99 99 99 100 100 100 99 100 100 100 100 98 100 90 76 85 99 91 86 84 84 79
82 68 83 92 65 91 84 58 62 63 82 99 98 99 81 80 83 86 89 91 93 98 99 100 99 100 100 100 97 100 100 100 100 99 100 96 88 100 94 93 89 86 84 91
76 77 92 96 99 73 80 70 77 94 94 94 100 100 90 87 94 95 95 96 100 100 100 100 98 99 100 100 100 96 100 100 100 100 100 99 98 93 100 96 90 86 88 90
85 99 98 91 82 79 95 97 94 80 78 100 100 99 95 94 95 96 99 100 100 100 100 100 100 99 99 99 100 100 93 99 100 100 100 100 100 100 100 98 95 90 95 97
81 100 100 98 92 83 99 81 59 81 95 95 94 100 94 97 98 97 99 99 99 100 100 99 99 100 99 99 100 100 100 95 99 100 100 100 100 100 100 99 97 100 100 100
86 93 92 98 54 61 96 80 74 77 72 73 96 99 91 95 95 99 100 100 100 97 100 94 100 100 100 99 100 99 100 100 94 97 98 100 100 100 100 100 100 100 100 100
58 67 74 64 62 94 90 70 76 85 82 70 76 89 94 96 100 99 99 99 99 97 89 95 100 100 100 99 99 100 100 100 100 93 97 99 100 100 100 100 100 100 100 100
44 61 79 82 92 87 68 67 79 87 97 79 79 81 93 100 92 100 98 98 97 86 85 90 95 99 100 99 98 98 99 100 98 99 98 95 100 100 100 100 100 100 100 100
52 63 79 78 82 95 78 74 68 62 96 94 83 86 85 89 93 96 100 98 97 96 94 86 91 99 100 100 98 93 92 93 98 98 100 99 99 100 100 98 99 100 99 98
78 83 87 87 94 82 87 74 64 79 98 99 98 95 94 94 97 99 98 97 96 92 90 87 94 100 100 100 94 95 94 90 94 100 99 98 99 99 100 99 99 100 100 99
88 94 97 88 88 90 86 72 84 99 99 99 98 98 100 99 96 83 78 78 78 78 83 89 94 98 100 100 100 93 94 97 95 96 97 98 100 99 99 99 99 99 99 97
94 83 95 92 94 99 94 100 98 98 98 99 99 98 88 83 80 76 75 75 78 83 90 94 95 96 100 100 100 100 100 95 91 92 96 98 98 96 95 98 98 98 98 98
78 71 96 97 96 93 98 99 100 97 98 95 90 90 87 85 84 78 77 78 85 93 95 94 95 100 100 100 100 100 100 100 94 90 87 92 97 99 99 95 94 97 97 97
83 76 87 96 91 91 99 98 99 94 85 82 77 76 78 78 80 81 85 89 92 96 98 95 99 100 100 100 100 98 98 97 100 100 100 93 87 86 90 92 95 93 96 98
82 88 97 97 100 93 97 97 92 85 74 72 73 76 78 84 90 86 89 94 94 95 95 96 98 98 100 100 100 100 100 100 100 95 98 100 98 96 92 87 86 95 96 95

GFSCGP_850_rhum_108.txt.gz
RH
38 49 44 29 30 45 45 32 33 26 21 28 29 24 52 53 26 20 22 21 20 18 18 15 14 13 13 13 12 10 10 18 61 62 63 68 63 60 63 66 61 66 56 63
55 56 48 48 48 34 35 52 58 29 21 24 56 70 58 55 50 42 33 31 26 23 18 16 16 15 14 15 15 14 10 12 30 59 55 59 54 57 57 60 64 69 74 71
64 47 36 48 53 58 28 29 55 56 26 24 53 57 52 39 41 38 37 34 30 28 33 34 33 34 29 33 31 33 32 22 33 52 61 63 59 78 86 76 69 67 88 90
49 38 39 50 55 56 56 33 60 65 44 41 66 72 67 50 49 39 34 33 44 59 53 55 52 50 53 59 74 82 84 69 79 93 67 63 48 52 51 49 59 74 86 89
57 48 53 60 52 46 49 32 56 49 36 45 62 99 76 57 57 48 42 63 69 72 66 52 52 53 52 51 56 73 97 100 100 88 74 65 59 58 59 56 65 86 98 98
65 50 59 50 32 31 39 58 54 64 52 56 40 94 66 56 48 64 67 72 76 71 61 54 50 48 47 48 44 47 58 80 83 96 91 69 64 60 60 61 63 70 80 85
54 60 36 38 46 40 52 68 89 86 94 76 56 90 55 72 70 69 75 78 84 85 71 58 49 45 42 39 41 50 44 44 56 64 79 96 77 62 53 48 53 65 77 96
63 65 42 54 53 45 70 60 70 94 90 78 57 79 75 88 86 85 81 86 92 97 92 82 74 66 58 53 48 46 42 48 42 52 56 64 89 79 68 56 63 68 68 75
98 72 42 38 37 49 56 67 50 68 87 81 70 76 86 80 88 95 94 94 97 100 100 99 88 83 81 76 79 80 75 63 58 50 55 56 72 80 71 63 73 74 77 80
96 97 54 55 55 60 59 58 64 87 78 87 77 81 100 99 96 95 97 92 96 99 100 99 99 94 92 94 95 95 98 99 88 61 47 61 82 86 73 63 78 77 84 83
89 99 75 57 71 79 61 76 77 67 80 96 96 99 99 100 97 100 100 100 98 100 100 99 99 100 95 93 94 95 97 99 99 100 87 73 97 84 75 70 74 86 88 80
72 99 94 74 66 75 69 72 66 82 85 96 98 98 100 98 96 95 100 99 100 100 100 100 100 100 97 93 94 98 96 98 100 100 100 100 100 100 89 78 76 90 94 79
79 87 87 72 79 80 83 62 64 88 95 99 97 98 96 95 91 95 98 99 100 100 99 99 96 98 100 99 98 96 97 98 100 100 99 99 99 92 86 84 79 91 91 88
80 86 88 93 79 87 100 87 88 92 99 97 98 99 97 95 95 96 99 100 100 100 100 99 99 100 99 99 99 97 95 99 99 100 100 100 100 98 99 99 94 94 95 82
85 98 96 100 99 96 98 100 99 100 100 92 99 98 97 96 96 98 100 94 96 99 99 100 100 99 98 99 100 99 100 94 95 100 100 99 100 100 99 100 98 100 97 88
82 99 100 99 97 85 97 97 92 100 100 100 95 98 100 98 99 97 98 94 93 97 100 100 100 99 99 100 100 100 100 100 96 96 96 99 99 100 100 99 100 100 100 100
82 90 97 96 89 91 86 98 94 94 92 90 95 99 96 94 94 98 99 100 100 97 97 93 99 100 100 100 100 99 100 99 94 95 93 92 99 100 100 100 100 100 99 99
81 65 81 86 93 88 99 96 83 88 88 81 92 93 90 92 99 99 99 98 99 96 92 95 100 99 98 98 96 98 99 96 97 98 100 98 93 94 99 99 99 100 100 100
59 70 96 97 93 97 76 77 92 92 98 94 91 95 95 99 95 98 99 100 100 95 91 94 100 100 96 95 96 92 89 92 91 94 98 100 100 98 96 100 98 98 100 100
59 68 97 98 88 95 90 77 72 70 92 98 92 91 85 96 91 94 99 92 91 92 89 88 97 98 96 97 98 96 91 92 97 99 98 98 100 99 100 98 100 98 100 99
82 88 89 92 88 84 90 81 71 80 98 98 98 99 94 91 98 97 90 85 85 90 90 89 91 100 99 96 92 93 91 92 99 99 99 98 96 99 99 99 100 100 100 100
91 97 94 86 82 88 93 81 82 98 99 98 98 99 99 86 82 90 88 84 87 91 90 88 86 96 98 97 95 100 96 94 95 98 98 98 100 96 98 98 99 100 98 99
94 88 93 91 95 99 99 99 99 99 98 99 98 96 83 80 82 81 85 86 91 93 92 90 87 93 98 98 97 96 100 99 90 88 96 96 98 97 98 98 99 97 96 98
94 79 94 92 97 96 98 98 98 98 92 86 90 92 88 88 88 85 86 91 93 93 90 90 86 91 100 99 98 100 99 100 99 92 85 85 90 94 96 95 96 97 96 97
91 83 82 96 96 98 99 98 93 80 83 76 76 82 81 80 86 86 90 94 96 94 91 89 87 89 98 100 100 98 98 99 99 96 95 91 85 80 85 87 93 97 100 100
87 97 98 93 97 93 98 95 85 74 73 77 76 78 86 85 88 90 92 96 94 92 92 89 90 91 94 96 98 96 91 92 95 95 98 96 91 91 86 86 87 90 95 97

GFSCGP_850_rhum_111.txt.gz
RH
36 59 68 50 38 33 33 34 37 45 54 42 29 26 23 23 26 35 45 22 22 19 18 18 17 16 24 28 30 25 29 26 40 52 61 58 59 59 63 60 55 53 49 46
57 58 38 42 50 53 51 54 46 36 31 55 54 36 25 24 43 33 35 38 25 24 30 27 22 20 17 18 17 23 22 14 16 31 35 49 53 63 69 76 75 72 57 53
58 42 33 41 46 45 54 68 61 57 30 42 58 67 31 25 34 39 40 35 42 44 48 50 41 34 36 34 24 17 16 20 30 44 81 72 67 70 73 78 72 73 70 66
55 44 43 44 47 46 73 49 56 48 58 71 45 67 32 35 38 46 40 65 77 73 68 64 65 63 56 64 80 68 81 65 61 84 89 76 69 63 56 63 66 74 79 73
68 54 52 58 50 49 56 50 55 48 46 84 74 77 48 66 66 74 77 80 84 82 77 70 69 68 61 70 94 99 98 98 98 100 100 97 88 69 60 66 68 65 77 79
67 53 60 60 49 49 43 53 57 58 67 94 61 56 53 58 76 87 85 90 93 91 88 84 82 73 58 57 59 78 98 100 100 98 99 99 81 62 63 60 59 62 67 77
69 61 63 56 64 46 50 65 79 94 97 81 45 61 44 90 88 88 92 93 99 100 99 89 92 86 66 58 53 51 55 68 77 94 99 100 97 69 70 58 57 62 64 72
94 64 43 52 42 45 61 64 80 94 94 75 59 86 92 93 90 94 92 98 99 100 99 100 99 100 91 79 64 53 50 44 43 51 64 93 93 94 88 72 70 69 68 62
92 86 44 48 45 46 56 76 52 87 79 97 82 100 96 95 96 97 97 98 100 100 100 100 100 100 99 95 90 82 68 52 40 36 34 47 56 62 62 66 67 69 72 72
94 99 59 62 56 54 62 62 83 95 96 88 79 97 98 97 100 100 100 98 100 100 100 100 100 100 100 100 96 95 99 100 98 88 55 34 38 57 56 59 59 60 68 72
79 100 72 58 77 86 77 75 78 76 84 97 95 98 100 100 100 100 100 99 100 100 100 100 99 100 94 92 92 95 97 99 99 99 98 86 63 70 98 98 73 64 66 67
72 97 96 71 68 75 82 72 72 86 86 94 96 98 100 100 100 99 98 100 99 100 100 100 98 100 99 94 95 94 97 100 100 100 100 100 96 98 100 100 92 73 69 70
84 79 93 67 72 81 94 81 69 87 92 94 97 98 100 100 99 99 99 100 99 100 99 100 100 99 98 100 100 97 94 95 99 99 98 100 100 100 97 99 99 79 77 77
82 88 96 96 89 97 99 94 83 97 99 94 93 98 99 99 98 99 98 97 94 100 100 100 100 100 100 99 99 100 98 96 95 98 99 99 100 100 99 95 96 98 90 90
88 99 100 100 100 90 95 98 99 97 95 92 98 96 97 97 97 99 93 90 94 100 100 100 98 98 100 99 99 99 99 99 97 92 92 96 98 100 100 98 99 98 100 100
86 97 100 99 92 87 95 95 93 98 99 97 89 95 96 98 99 96 98 92 95 100 100 100 100 98 99 99 99 98 100 100 100 96 94 92 98 100 98 100 100 100 100 100
98 100 99 96 80 85 79 98 96 90 90 92 89 95 96 94 92 98 98 99 98 100 100 100 100 99 99 97 96 96 95 94 98 99 99 96 97 97 96 98 97 99 100 99
93 92 100 96 95 90 98 96 94 84 88 90 85 92 88 93 99 99 99 100 100 96 100 100 98 99 98 99 90 92 92 92 94 96 99 100 100 99 99 94 95 97 98 99
69 88 99 97 89 96 92 90 92 92 96 94 94 88 94 99 95 96 98 98 96 94 96 100 99 98 94 96 91 91 90 93 94 97 98 100 100 100 99 100 98 100 94 94
69 81 99 97 88 94 92 81 79 75 95 96 96 92 95 97 90 96 98 96 99 95 92 95 99 96 96 99 93 86 88 93 96 98 99 99 100 97 95 98 99 100 100 100
83 90 94 96 88 91 88 95 91 89 97 99 96 98 96 92 99 99 90 90 93 94 92 92 98 98 98 96 90 89 86 86 95 97 98 99 99 99 100 100 99 99 99 99
87 94 92 85 81 92 97 86 81 98 99 98 98 93 96 98 97 90 90 92 93 92 90 93 96 100 100 98 93 92 95 94 86 89 92 93 96 97 98 100 100 100 100 99
93 91 90 94 94 99 99 99 99 98 100 99 95 93 96 86 90 91 93 94 93 91 89 89 94 96 97 98 96 91 96 92 88 80 77 83 87 91 93 94 97 95 95 98
93 80 94 92 96 96 99 99 99 95 93 96 100 99 98 92 89 92 93 94 91 90 88 88 88 91 95 96 95 96 94 92 86 82 81 78 72 79 87 92 94 94 95 96
90 85 88 95 94 95 100 91 82 92 83 81 87 88 88 88 91 94 95 95 94 91 90 88 88 90 92 94 93 92 91 90 89 86 84 83 82 79 78 81 88 93 96 97
92 97 97 98 88 94 95 85 77 80 80 80 79 84 88 90 91 94 93 94 91 86 86 85 86 90 92 93 89 86 87 88 89 87 88 89 89 88 87 86 87 88 92 94

GFSCGP_850_rhum_114.txt.gz
RH
35 50 57 52 45 38 39 43 49 38 30 32 33 41 38 35 32 26 23 22 25 27 21 24 20 19 21 56 67 56 50 52 54 65 70 67 50 39 43 42 45 47 45 49
58 71 46 40 43 55 61 68 64 46 33 46 46 46 34 36 37 35 35 23 33 29 33 33 31 23 20 26 56 70 62 63 59 63 64 68 63 57 50 50 50 59 55 49
60 51 39 44 48 49 50 58 47 50 49 52 52 50 41 33 28 30 31 31 47 49 61 55 51 45 29 25 26 38 61 68 63 58 67 74 79 79 75 68 58 57 63 65
64 49 50 52 54 50 68 44 47 56 68 91 50 85 55 36 35 37 82 90 94 91 86 85 76 74 62 46 32 25 24 29 47 65 80 82 79 67 57 61 61 65 67 69
69 62 66 70 63 47 56 48 57 57 72 75 68 88 70 41 43 94 93 96 100 100 98 96 92 88 89 91 83 78 56 35 50 98 96 100 99 72 71 69 70 67 69 67
68 55 60 65 55 53 49 61 64 65 80 96 59 72 61 96 99 94 91 98 100 100 100 100 100 93 85 90 99 100 100 89 87 98 99 99 98 98 75 87 74 63 60 55
68 64 62 59 70 51 59 65 89 87 94 86 54 69 89 98 93 96 98 98 100 100 100 100 100 99 91 84 80 92 96 98 100 99 99 100 98 99 94 82 67 46 52 56
97 82 52 50 56 43 60 61 85 94 94 89 66 82 99 100 97 100 100 100 100 100 100 100 100 99 100 100 87 83 74 77 83 93 99 100 100 100 100 89 79 68 62 57
95 93 56 54 49 51 56 77 69 97 86 96 98 98 95 88 95 98 98 99 100 100 100 100 100 100 100 100 100 98 93 80 69 64 64 83 98 99 100 100 98 66 62 64
90 97 66 57 63 52 58 61 93 97 96 92 88 96 97 95 98 98 97 98 98 98 100 100 100 100 100 100 100 100 100 99 95 92 83 65 57 63 80 90 84 74 70 60
62 100 74 68 70 77 86 86 88 89 90 96 96 97 100 99 99 98 98 99 98 98 99 100 100 100 100 98 100 100 100 99 100 98 96 100 94 65 52 65 98 96 95 87
71 100 96 72 51 72 81 85 81 97 89 97 97 98 100 100 100 97 98 98 98 98 98 100 98 100 98 98 100 99 99 99 99 100 100 99 100 99 99 85 97 99 100 97
96 91 95 73 72 76 86 77 69 84 100 96 96 98 100 100 100 99 98 98 98 97 99 98 100 98 99 100 100 98 91 96 99 100 100 100 100 99 100 96 99 99 100 100
81 100 99 96 97 98 94 95 94 97 97 96 94 97 95 96 96 98 97 98 98 100 100 97 96 99 99 98 100 98 100 95 94 97 99 98 100 100 100 100 99 99 100 100
90 100 99 98 96 90 93 99 93 90 89 90 97 94 96 96 96 98 98 91 96 100 100 100 100 100 95 96 95 100 100 99 98 93 96 100 100 100 100 100 99 99 98 100
84 97 100 99 100 97 93 95 84 94 96 96 92 93 96 98 98 97 98 93 99 100 100 97 100 100 100 98 100 99 99 99 100 99 98 97 95 93 93 96 98 100 98 99
99 100 98 97 78 78 78 98 96 89 92 94 84 94 96 93 89 97 98 99 100 100 100 99 100 100 100 98 98 99 100 100 99 98 100 100 99 99 97 95 95 96 100 99
98 100 100 97 93 89 93 80 80 85 90 91 86 91 88 93 99 97 97 98 100 100 100 99 98 96 96 90 92 97 97 98 97 97 96 97 100 99 99 99 100 96 96 100
83 100 99 98 94 95 85 87 93 92 95 94 96 95 96 99 97 98 97 97 98 98 100 100 100 99 98 99 92 89 90 92 95 96 98 99 98 99 99 98 99 100 99 98
79 81 99 96 86 95 92 82 88 81 92 90 88 91 95 97 89 94 98 96 94 94 99 100 99 97 94 97 100 89 82 85 92 95 96 96 96 99 99 99 98 100 99 99
83 90 96 96 90 92 89 95 99 91 99 94 95 98 94 93 98 97 96 93 91 91 93 98 97 96 97 92 96 95 94 88 82 85 88 90 91 93 96 99 99 99 99 100
87 94 93 95 90 89 99 93 82 99 99 97 92 96 100 99 97 94 95 93 90 91 90 95 95 98 96 92 88 88 88 93 89 81 78 83 88 90 91 92 93 95 95 94
95 88 94 95 94 99 100 100 100 95 98 97 92 94 83 87 91 92 91 90 89 89 89 90 89 90 90 87 87 85 91 89 86 83 79 77 78 82 86 86 88 89 90 89
98 84 93 91 96 96 99 98 98 95 98 100 96 94 90 86 93 94 92 90 88 86 87 89 88 89 91 91 89 88 87 87 85 83 83 81 77 76 77 78 83 85 89 91
92 91 92 95 96 98 98 96 98 91 88 89 95 94 90 91 92 94 93 91 88 87 87 87 90 93 93 91 88 86 84 82 84 84 86 87 86 84 84 87 92 95 100 100
98 96 97 97 85 94 98 96 97 91 81 83 83 86 90 92 91 92 90 92 91 87 82 78 79 88 92 92 89 86 82 80 83 85 88 90 90 90 90 90 92 96 99 100

GFSCGP_850_rhum_117.txt.gz
RH
38 38 40 36 36 34 37 42 41 34 29 38 36 30 29 32 33 30 27 28 28 23 22 21 21 20 19 24 23 54 52 59 57 55 52 53 51 46 42 40 39 38 36 32
50 54 39 40 40 43 43 48 48 40 33 33 34 39 35 36 36 34 30 26 26 27 27 26 35 33 29 26 27 90 91 72 61 55 60 64 58 56 47 48 46 46 43 39
59 47 40 43 46 50 47 51 47 46 36 38 45 46 34 28 27 30 30 44 43 62 54 77 80 62 53 40 47 98 99 92 67 65 70 71 62 75 65 54 51 49 47 45
62 50 47 49 58 51 63 41 42 46 54 60 45 74 42 40 49 74 81 91 97 100 100 100 96 100 85 68 53 72 100 99 90 66 60 56 51 55 56 60 56 56 58 52
51 59 60 64 59 46 39 42 47 51 59 64 48 80 45 64 93 99 98 98 100 100 100 100 100 100 100 100 99 73 75 100 89 80 81 70 69 63 64 71 70 68 65 62
61 55 55 59 54 49 43 55 52 55 67 81 54 67 56 95 100 98 100 100 100 100 100 100 100 100 100 100 99 100 100 100 100 99 100 100 91 91 92 80 74 72 67 66
60 57 55 57 57 48 57 55 69 66 73 65 78 90 95 100 98 100 99 99 100 100 100 100 99 100 100 100 100 100 100 99 100 99 100 99 99 99 98 99 91 92 77 68
83 57 50 48 52 57 51 52 73 89 67 73 84 90 92 100 91 98 99 100 98 99 100 100 100 100 100 100 100 100 98 99 99 98 98 100 99 100 99 98 99 100 92 65
87 82 53 50 52 49 58 66 51 93 78 90 92 94 100 75 86 88 98 98 99 98 100 100 100 100 100 100 100 100 98 92 90 90 94 96 95 100 100 100 100 99 94 82
69 97 54 54 52 54 55 54 96 90 90 78 90 86 92 91 96 94 94 97 99 98 98 98 100 100 100 100 100 100 100 99 97 95 90 86 89 94 97 100 100 100 100 91
57 94 61 61 58 56 58 73 97 98 82 90 87 92 100 99 99 96 96 98 98 98 97 98 98 100 100 100 100 100 100 100 99 98 99 99 99 93 80 78 93 99 100 92
64 96 85 61 46 61 63 70 86 92 83 90 91 94 100 100 99 96 97 98 98 98 97 97 98 98 100 100 100 100 100 99 100 100 100 99 97 98 99 99 83 73 99 100
84 89 86 54 62 50 70 70 84 93 98 96 93 96 98 94 95 98 97 98 97 97 95 96 96 98 99 100 100 99 100 100 100 100 100 100 100 100 99 98 99 98 96 99
75 90 95 87 93 95 88 87 96 99 95 90 89 90 92 94 94 94 96 98 97 97 97 96 98 98 98 100 99 99 98 98 100 97 97 99 100 100 100 100 100 99 99 100
85 97 98 99 97 83 93 94 87 87 78 75 93 88 92 94 94 96 98 97 98 97 97 99 97 96 99 100 100 100 98 100 100 96 95 97 98 100 100 99 100 100 100 98
87 95 100 96 100 96 94 95 77 90 85 90 84 90 94 97 98 96 97 95 94 98 100 100 100 100 100 100 100 98 98 97 97 100 100 100 98 94 95 95 96 100 100 100
94 95 94 86 96 83 89 96 95 87 87 82 78 90 92 91 92 94 96 98 100 100 100 99 100 100 99 98 98 97 97 94 92 93 98 100 100 99 99 98 96 95 99 99
94 88 91 85 96 93 97 91 89 82 88 89 84 87 82 89 98 99 100 100 100 100 100 99 100 100 100 99 85 90 90 90 92 92 95 96 100 100 100 100 100 99 99 99
79 94 91 95 89 95 95 91 89 87 91 89 91 89 90 99 90 97 100 100 100 100 99 98 97 97 99 100 100 81 76 82 87 90 92 95 96 98 97 98 99 100 100 98
85 81 93 92 92 92 92 92 96 84 82 87 84 87 82 97 79 86 100 92 94 100 100 98 96 92 90 92 92 81 78 75 78 86 92 92 91 93 96 98 98 98 98 98
74 80 87 89 90 89 86 97 99 90 90 91 89 89 81 83 93 99 96 89 91 95 94 92 90 89 91 88 88 82 82 85 82 77 80 85 90 91 92 93 92 93 92 92
76 88 86 88 91 92 96 98 83 93 100 96 96 96 96 100 98 95 93 90 90 88 87 88 86 85 81 78 79 81 81 86 82 76 74 74 77 83 87 88 87 87 85 85
86 80 84 91 91 97 98 99 100 99 99 98 98 92 89 91 95 96 96 94 91 91 93 93 89 87 84 83 84 84 88 88 84 82 78 75 74 74 74 74 77 78 82 84
88 88 90 94 96 95 100 98 98 99 98 99 95 93 90 95 97 97 98 92 88 87 87 90 88 88 89 86 84 82 81 82 85 79 85 83 80 79 78 78 81 80 82 84
90 90 85 93 95 96 100 99 95 93 97 98 98 93 95 97 100 100 100 97 90 81 77 77 81 86 86 86 85 79 67 63 89 83 73 74 78 80 82 83 86 92 98 98
92 90 91 90 88 89 98 98 98 85 82 84 84 85 86 87 89 94 100 95 89 77 69 65 62 58 62 67 71 69 63 54 50 53 54 51 58 68 73 77 80 81 83 86

GFSCGP_850_rhum_120.txt.gz
RH
31 27 20 20 24 26 26 27 26 21 18 24 24 21 18 18 20 21 22 22 22 22 21 18 19 20 20 21 44 38 30 54 93 98 88 78 81 64 76 87 88 43 39 45
35 30 22 28 29 33 32 33 30 22 20 23 23 25 18 19 29 46 53 51 51 47 34 24 21 22 49 64 70 58 40 46 84 92 86 73 65 71 77 86 84 56 36 43
38 26 31 34 34 38 35 32 29 28 25 25 26 24 22 28 40 48 60 73 78 78 74 64 63 68 81 76 84 78 68 46 76 90 92 87 89 86 91 87 83 38 37 44
39 33 35 37 39 37 43 23 24 27 36 42 30 50 29 37 39 45 60 83 99 99 99 96 98 99 100 99 88 94 99 80 82 98 98 88 80 71 80 65 61 39 43 50
33 37 40 44 37 33 33 30 31 34 42 43 32 45 29 43 59 61 65 81 98 98 100 100 100 99 99 99 100 96 100 98 98 96 100 87 94 90 98 95 73 51 44 51
42 35 43 38 38 38 34 41 40 39 42 53 40 59 45 77 90 74 89 80 100 96 98 99 100 100 100 98 100 97 100 100 100 100 98 99 95 96 94 74 72 56 56 59
34 38 39 43 40 36 42 47 49 51 60 33 39 59 88 93 92 94 98 97 98 96 98 98 99 98 98 100 100 98 100 100 100 100 100 98 76 83 99 92 98 93 62 65
45 40 40 39 42 46 44 48 54 82 58 52 43 64 84 65 78 92 93 99 99 99 97 98 98 100 99 100 100 99 100 100 100 100 100 97 91 100 100 93 98 99 99 96
58 66 34 36 35 42 44 51 42 72 59 80 67 80 95 51 64 79 93 94 98 99 98 97 98 100 100 100 100 98 98 98 100 100 99 100 100 97 98 99 94 98 99 96
52 94 39 41 40 37 46 43 64 85 88 76 75 86 86 88 88 95 92 96 98 99 96 97 97 99 100 100 100 98 99 98 100 98 99 97 98 96 95 98 100 100 100 100
44 90 46 41 41 42 45 59 64 77 62 79 72 92 100 100 97 94 94 97 98 98 97 97 97 99 100 100 100 100 100 99 98 98 99 100 100 97 95 96 96 98 99 99
54 71 66 46 36 36 36 53 81 90 72 78 90 95 100 85 92 92 95 98 97 97 97 96 97 97 100 100 100 100 100 100 100 100 100 100 100 98 99 99 99 93 86 100
62 66 65 42 52 39 52 54 62 79 100 92 92 94 77 78 86 94 96 98 98 97 97 96 96 96 98 100 100 100 99 98 98 98 98 99 99 99 99 99 99 99 100 98
68 63 82 68 73 73 80 71 65 99 99 91 86 90 84 85 87 89 95 98 98 97 96 96 96 97 97 97 99 100 100 100 100 100 100 98 99 100 100 100 100 100 99 100
58 86 77 75 86 82 76 91 85 83 88 90 91 85 89 89 88 93 98 98 97 97 99 97 96 96 97 96 99 100 100 99 100 100 100 99 99 99 100 99 100 100 100 100
66 92 100 95 91 92 85 90 73 76 82 84 75 88 88 89 93 93 94 91 86 92 100 100 100 100 98 97 98 100 100 96 98 100 100 100 99 100 99 98 99 100 100 100
76 88 85 70 89 68 79 95 93 83 69 79 82 82 82 85 85 92 90 87 90 95 100 100 100 100 100 100 99 94 99 99 98 100 100 99 98 98 99 100 100 99 98 99
77 79 82 66 90 92 99 71 62 70 69 66 66 74 73 83 93 96 100 97 99 100 100 100 100 100 100 100 98 98 89 88 89 91 94 95 94 94 94 92 93 95 97 96
56 79 72 80 87 91 89 83 76 77 82 72 77 75 81 91 85 96 100 100 100 100 100 100 100 99 96 95 87 77 71 72 77 88 92 92 94 93 94 95 94 92 91 90
63 72 77 70 84 84 79 76 92 82 84 71 71 76 78 91 83 83 100 100 100 97 98 98 97 100 100 100 99 83 81 79 76 80 86 86 87 87 88 90 89 90 88 89
75 69 74 74 74 79 76 93 99 92 93 73 70 67 65 72 85 100 100 100 100 92 95 93 92 95 99 100 99 96 97 92 87 70 68 70 75 81 84 84 83 82 82 82
53 66 72 70 79 88 86 99 95 89 79 77 74 78 87 100 100 100 100 100 100 88 89 89 89 93 95 96 97 99 97 100 100 98 79 73 72 71 71 72 76 78 77 78
72 63 67 77 83 92 98 98 98 83 85 80 78 80 87 99 100 100 100 100 98 83 84 88 89 91 93 93 94 97 99 99 98 95 95 96 88 79 79 80 74 75 76 84
72 64 77 84 95 94 99 98 99 96 91 86 84 88 91 99 100 100 99 92 80 76 79 84 85 86 89 96 93 86 95 91 84 85 84 86 88 86 88 80 88 83 77 91
70 69 72 93 95 97 99 98 99 100 99 95 89 88 88 86 86 83 84 83 75 73 74 71 71 75 79 84 70 61 74 92 80 79 83 80 85 85 79 85 56 60 65 74
71 70 83 93 93 98 96 97 97 96 90 90 90 89 88 85 87 89 93 90 77 72 70 67 65 61 56 48 43 44 46 67 76 84 86 89 95 93 87 84 81 83 50 54

GFSCGP_850_rhum_123.txt.gz
RH
22 20 16 12 17 18 19 21 20 15 13 17 16 14 13 14 24 32 34 37 41 48 52 53 49 38 23 18 20 20 20 21 29 55 88 89 90 87 71 70 72 70 35 59
23 25 15 18 20 23 24 26 23 16 13 15 17 19 15 15 28 31 35 40 48 65 72 71 72 71 52 62 53 45 44 52 49 38 80 83 88 81 62 64 69 86 42 31
24 16 21 20 21 25 23 26 25 21 16 16 19 19 16 19 24 34 38 46 53 65 79 95 96 96 90 89 91 76 72 57 60 52 68 81 86 74 68 66 69 82 85 44
24 19 24 22 25 25 32 20 20 22 26 32 20 39 20 29 34 40 44 54 63 70 79 98 98 98 99 100 98 66 92 77 67 78 79 71 83 71 66 64 69 79 92 62
22 26 26 28 27 26 29 26 30 31 35 35 28 32 24 36 56 55 54 64 68 77 84 94 100 97 98 99 99 98 100 100 69 33 75 78 83 69 69 69 70 77 92 95
27 22 26 27 27 29 29 34 30 30 30 43 27 31 36 71 76 69 68 73 77 88 94 92 99 94 99 98 100 100 99 99 95 72 80 75 76 77 70 74 79 86 98 92
26 27 24 30 33 24 32 33 44 37 52 43 26 31 72 51 53 63 74 85 79 87 98 99 100 94 94 98 100 99 100 100 100 97 99 99 95 86 81 89 89 99 96 86
23 38 29 28 29 30 33 33 43 57 48 42 30 48 85 44 50 62 67 78 84 90 99 99 98 98 96 98 99 100 100 100 98 100 100 100 100 100 100 80 84 98 98 97
35 40 24 27 26 28 35 36 37 61 44 65 52 74 62 48 58 70 79 82 90 97 99 97 96 97 97 97 97 100 98 100 100 100 98 100 100 100 95 72 63 97 100 100
40 77 28 27 30 29 35 28 54 64 88 69 46 89 84 88 89 91 92 91 96 98 98 97 95 96 96 96 100 100 100 100 100 100 100 99 99 99 91 79 76 98 100 100
37 80 37 30 34 30 35 47 54 54 51 76 70 92 84 95 95 93 92 97 98 97 96 97 96 96 98 99 98 100 100 100 100 99 99 100 100 98 98 90 88 99 98 99
38 57 58 32 26 28 29 40 44 85 62 90 99 96 79 74 75 84 93 98 94 98 96 97 96 97 97 97 100 100 95 98 100 98 98 96 100 88 98 99 100 97 96 99
52 58 58 43 43 36 42 39 45 55 64 87 93 95 64 66 72 84 94 98 96 95 96 97 96 96 97 96 97 98 99 85 87 97 100 100 98 100 100 99 100 99 99 99
61 53 61 60 59 53 65 58 54 68 99 98 83 89 78 80 82 79 87 98 98 96 96 96 96 96 96 96 97 100 100 99 98 99 98 100 100 100 100 100 100 100 100 99
52 77 70 60 54 62 71 81 70 71 71 83 87 84 84 82 83 90 91 80 80 92 98 98 96 97 97 97 96 97 99 100 100 100 100 100 100 98 97 98 100 100 99 99
50 90 98 90 63 66 95 85 69 69 71 76 66 84 73 74 77 83 79 72 75 84 94 100 100 100 100 100 99 100 100 100 100 99 96 100 93 93 96 93 91 91 94 96
67 73 84 64 59 62 90 91 82 63 52 63 68 72 66 69 73 87 84 80 84 87 94 100 100 100 100 100 100 100 100 93 91 93 92 88 89 91 91 94 91 89 90 90
71 73 63 60 71 84 92 55 51 54 54 51 58 64 59 67 82 89 91 88 90 91 90 95 96 97 100 100 100 100 83 80 83 85 86 82 87 89 90 89 88 88 88 88
43 68 70 66 55 90 83 62 56 56 67 57 59 59 65 72 78 94 95 94 89 88 83 79 82 89 95 98 100 88 76 74 75 78 83 80 84 84 83 82 82 83 84 83
50 59 79 58 66 74 88 61 63 56 74 58 60 63 66 69 88 79 98 100 89 74 75 75 76 78 80 85 99 100 92 92 85 87 76 73 74 72 74 79 82 83 81 83
73 67 78 66 61 74 64 70 85 86 89 64 60 61 68 76 87 97 98 100 85 72 73 72 73 74 75 78 83 95 90 88 92 91 75 68 63 62 66 69 71 72 74 71
55 57 62 57 61 68 75 97 96 80 71 69 66 70 79 91 98 100 100 100 80 67 69 69 72 75 77 76 75 82 82 75 79 83 88 94 93 91 88 84 71 64 65 66
56 44 60 67 83 77 99 99 95 93 89 78 70 73 82 94 100 100 100 100 74 64 65 66 68 70 76 79 79 79 81 70 69 71 73 76 79 77 84 88 92 61 58 74
58 51 73 74 74 76 98 98 98 99 98 84 74 78 83 91 94 95 86 71 60 58 58 59 60 62 67 74 78 82 84 76 67 68 73 76 75 71 70 83 83 89 46 74
63 57 65 88 83 89 97 97 97 98 96 77 73 72 72 69 66 66 66 62 59 58 56 54 54 55 56 66 67 68 77 85 79 73 75 84 83 82 77 82 86 96 66 45
56 69 76 90 80 92 94 97 97 96 95 82 76 74 71 69 71 72 72 64 58 58 56 54 58 60 62 60 40 35 33 40 56 87 85 88 88 87 86 86 86 94 95 91

GFSCGP_850_rhum_129.txt.gz
RH
22 34 38 30 25 22 19 20 20 18 16 19 21 18 17 19 38 46 53 56 59 59 57 59 64 62 62 48 42 45 56 43 52 47 41 26 24 48 73 60 78 95 82 84
30 36 26 22 18 17 19 24 27 23 18 18 21 22 31 38 45 53 59 64 67 68 71 73 78 79 69 60 59 57 70 63 51 60 63 69 56 37 76 91 73 79 90 81
35 29 21 21 22 23 21 22 26 26 22 23 26 29 46 45 47 52 60 68 71 74 79 84 85 75 71 67 65 72 79 77 60 54 57 64 66 62 47 72 90 85 96 85
27 20 20 21 22 23 30 20 24 30 37 49 28 54 50 52 53 54 65 75 74 76 84 88 80 73 76 78 80 87 79 76 70 60 65 61 64 58 44 45 67 99 92 89
32 28 26 27 26 17 22 27 30 34 42 45 41 57 61 56 73 68 72 81 80 83 88 90 87 85 81 86 92 90 83 82 78 70 70 85 74 70 49 35 47 76 100 98
32 25 26 26 22 23 25 31 35 36 42 72 42 42 83 82 80 77 75 86 82 87 90 91 86 83 88 88 91 94 97 96 91 88 78 97 93 72 49 39 33 44 69 100
31 27 20 21 27 25 30 39 77 73 74 66 37 55 83 74 74 76 79 86 84 89 93 93 90 92 94 94 95 92 95 95 98 99 98 99 99 98 76 33 28 48 54 79
43 54 31 21 24 32 35 37 67 74 87 79 42 68 93 69 72 74 78 82 90 92 93 96 90 93 94 96 98 98 96 96 100 99 99 100 98 89 69 52 72 95 81 74
56 58 34 26 27 29 32 40 32 56 59 86 83 77 76 65 73 74 85 86 91 97 99 97 86 92 95 96 98 98 97 96 99 100 100 99 100 95 93 93 100 69 68 85
52 73 37 29 26 26 31 29 63 79 89 89 69 98 98 96 92 86 92 93 90 100 97 90 91 95 96 98 98 95 96 97 99 99 100 100 100 100 100 100 89 72 90 88
47 70 53 39 36 36 35 41 60 72 74 93 96 91 87 97 96 94 92 90 93 99 95 93 90 94 98 98 98 93 97 95 98 98 100 100 99 100 100 100 93 91 100 97
48 65 76 52 35 34 33 42 54 89 71 87 93 96 85 82 80 82 87 88 91 96 92 96 93 94 95 98 95 95 96 95 97 98 97 100 100 100 100 100 100 100 100 100
52 70 87 67 49 46 48 42 45 57 70 87 93 92 70 72 78 80 81 80 86 91 83 92 93 92 96 96 96 96 96 96 96 97 98 99 100 99 99 100 100 99 100 100
55 73 83 96 88 91 100 87 51 70 98 92 92 96 92 79 83 82 73 73 80 89 82 80 81 88 90 89 89 96 97 97 97 98 100 100 100 100 100 100 100 96 100 100
52 90 81 75 68 64 67 94 67 71 73 82 94 92 85 79 83 78 73 73 79 86 82 81 83 81 77 83 85 74 76 92 98 98 99 99 100 100 98 91 97 99 100 98
51 89 98 90 62 68 78 93 79 76 71 80 76 86 72 79 75 76 77 77 80 82 81 78 84 85 83 88 87 80 69 69 72 80 93 88 86 99 99 97 85 84 90 90
62 85 98 84 65 88 86 81 85 72 72 71 85 77 74 72 78 81 83 83 81 78 77 75 78 85 83 86 81 79 75 68 62 66 69 78 80 79 77 71 68 73 84 87
65 81 91 93 72 94 84 64 67 60 51 64 73 75 70 78 84 87 87 82 77 72 71 71 72 78 77 76 75 72 77 75 67 58 57 61 65 63 60 59 58 60 62 63
42 79 93 91 86 81 72 58 58 60 66 60 67 73 81 87 94 96 88 79 72 69 69 70 70 71 76 70 70 72 71 81 73 71 60 52 46 47 54 56 58 59 63 59
39 70 85 88 86 86 82 73 65 56 96 54 58 71 80 89 98 96 84 70 66 66 69 70 71 69 72 72 65 67 72 71 81 73 79 71 47 38 28 31 43 51 51 54
54 70 84 86 91 86 74 76 64 87 88 58 56 62 68 84 94 92 75 70 64 63 66 68 68 64 66 62 62 68 71 75 76 80 71 73 53 39 37 29 23 23 26 27
54 87 96 92 89 87 82 79 92 80 72 72 75 76 80 94 94 87 70 62 60 60 60 61 62 58 51 44 42 59 71 76 70 75 75 75 78 64 40 35 31 24 21 20
90 76 92 91 96 88 99 96 83 74 80 87 88 98 96 96 88 73 62 54 52 53 52 52 52 50 43 32 25 27 55 75 82 58 71 80 81 84 83 74 64 47 36 30
63 66 91 90 91 97 99 100 96 87 92 94 90 97 97 92 71 64 56 53 52 49 51 51 46 37 25 15 13 14 16 35 57 53 72 89 81 78 84 94 82 68 64 65
69 68 87 94 92 98 99 99 99 99 97 98 98 96 94 76 68 67 54 50 49 51 52 50 47 33 18 13 11 10 10 13 26 44 44 54 74 76 74 86 88 94 95 97
69 78 91 92 80 80 98 92 99 100 99 98 96 98 97 84 65 57 54 54 53 54 54 49 36 20 17 15 13 12 12 16 26 41 57 54 77 94 87 90 88 95 99 100

GFSCGP_850_rhum_132.txt.gz
RH
23 34 40 32 31 27 28 26 22 21 19 20 22 20 41 55 57 64 64 63 62 61 59 54 50 46 44 46 48 50 49 47 54 49 42 37 34 32 33 26 17 30 80 88
32 41 29 26 27 31 29 23 26 25 21 22 22 36 55 54 61 66 70 71 72 68 66 64 60 57 59 61 59 55 57 60 64 61 57 53 46 40 34 33 19 24 55 90
36 34 24 25 29 31 26 24 24 26 28 29 29 36 59 54 59 67 75 76 78 82 83 76 70 70 66 65 61 62 65 70 69 65 65 59 56 49 49 42 32 37 62 61
31 25 27 28 29 26 33 22 24 33 41 49 35 59 61 60 68 70 79 84 83 86 84 77 76 69 66 68 69 76 80 82 82 80 80 77 73 64 50 54 47 35 61 71
35 31 31 34 30 23 26 26 31 33 40 46 42 66 62 61 73 80 80 86 85 86 82 73 71 72 72 76 79 86 86 89 98 97 99 94 99 96 98 64 54 46 38 52
37 29 32 32 26 25 25 31 38 41 47 75 48 55 79 89 89 80 82 86 87 83 80 73 74 80 80 84 95 90 88 85 94 93 99 100 99 100 100 94 53 51 43 36
35 33 26 23 32 28 28 46 75 77 84 74 44 60 90 85 81 82 84 84 90 86 83 81 83 85 92 98 95 95 88 91 100 100 99 99 100 99 98 99 74 66 48 42
50 60 32 31 27 32 36 44 70 75 80 78 44 61 91 78 75 78 82 87 92 93 94 86 89 91 96 98 96 94 92 96 98 97 99 100 100 100 99 98 93 72 50 43
53 52 36 26 29 27 35 45 35 59 62 88 80 87 75 72 78 86 87 88 93 97 95 92 87 92 99 96 100 96 98 98 95 100 98 100 100 100 100 98 100 99 68 58
53 68 38 36 30 29 30 30 55 80 77 91 85 91 95 94 95 91 93 95 91 88 90 90 89 94 99 99 99 97 98 98 100 100 100 96 100 99 100 100 99 98 97 98
53 70 52 39 40 43 41 45 57 64 80 90 96 88 88 91 96 96 94 86 87 85 90 87 92 87 86 97 92 98 98 96 96 99 97 97 100 100 100 100 99 99 97 100
47 70 81 53 38 38 39 49 52 86 75 88 93 90 88 91 87 85 86 81 85 79 77 75 82 93 78 75 86 89 98 96 97 99 92 96 97 98 99 100 100 100 100 97
52 79 89 54 53 70 78 64 54 66 75 84 89 84 87 80 82 83 76 81 85 78 74 70 72 81 88 76 71 84 97 96 96 96 96 93 96 97 99 100 100 100 100 100
54 75 80 81 85 85 88 79 89 85 94 89 90 95 95 91 93 80 75 79 84 81 76 74 74 72 74 82 70 69 81 95 96 96 96 96 96 97 98 100 100 100 100 99
56 87 79 73 68 67 69 70 76 92 81 90 82 91 93 91 85 77 77 78 81 82 75 79 77 74 71 71 74 69 62 70 83 88 95 96 97 95 97 100 99 100 100 100
57 79 92 68 65 74 78 70 72 77 74 82 75 87 81 82 76 77 80 80 81 82 74 77 76 74 73 69 70 64 69 58 54 61 76 83 100 98 97 96 100 100 100 90
64 78 98 80 58 71 92 83 86 78 72 69 86 77 83 83 76 78 86 82 76 79 73 72 76 73 72 70 68 73 64 63 53 47 36 45 58 58 68 72 61 56 67 79
68 72 85 90 68 90 63 68 71 70 63 72 78 81 77 79 84 86 83 78 74 72 71 70 73 72 68 68 67 68 70 62 51 49 34 28 26 34 43 56 61 65 57 56
53 77 96 88 83 74 72 69 71 76 71 69 77 82 86 88 88 93 82 76 71 70 70 71 70 71 66 66 67 63 68 66 66 67 59 49 40 27 27 29 32 34 35 36
49 57 86 97 86 85 78 73 66 59 91 66 74 84 89 94 94 94 77 71 69 70 69 67 62 63 58 65 63 52 67 76 70 72 72 60 49 42 35 30 28 22 20 22
63 77 79 84 85 76 75 74 66 86 80 68 70 80 89 92 86 88 70 65 69 67 66 63 48 38 42 51 57 44 47 75 78 63 58 49 45 50 42 28 24 21 15 12
61 71 75 84 92 80 86 75 80 82 85 77 70 75 84 85 94 86 73 65 64 62 59 52 38 27 22 25 38 46 38 54 52 42 45 48 49 47 39 30 26 20 17 13
75 68 87 84 84 95 99 96 85 69 75 88 81 83 83 91 96 80 66 59 57 54 52 47 32 19 11 10 14 29 47 34 44 44 48 58 55 50 42 40 41 28 22 21
97 69 92 90 93 97 100 99 83 75 71 80 87 93 98 96 96 71 60 53 51 51 51 48 32 12 11 10 10 13 27 35 37 41 43 41 38 41 39 39 42 43 45 56
76 73 90 94 96 99 100 100 99 95 87 86 96 94 95 95 96 92 78 68 51 51 50 42 23 15 14 13 12 15 18 26 35 32 34 37 43 51 56 54 56 63 69 74
72 86 88 88 84 81 93 99 90 91 97 95 95 98 97 95 96 91 85 68 50 49 45 30 18 18 17 16 14 20 31 40 46 45 36 38 44 53 63 70 77 89 93 88

GFSCGP_850_rhum_135.txt.gz
RH
26 34 37 33 31 28 32 33 34 27 20 22 23 26 59 62 64 69 69 67 63 58 57 53 49 49 47 46 47 48 49 52 52 51 51 50 49 44 35 30 30 42 31 30
32 40 29 28 30 34 36 39 38 25 23 24 26 38 62 60 70 74 76 74 71 61 54 56 56 54 55 56 57 59 61 61 62 65 67 65 65 60 48 40 32 38 41 42
32 29 24 28 31 33 36 38 29 28 30 31 30 45 70 63 69 73 80 80 78 78 75 67 66 64 63 65 68 68 68 67 68 71 73 69 68 73 74 55 45 36 40 43
29 26 30 33 35 33 40 29 28 28 40 48 34 60 64 70 76 73 82 84 81 78 76 74 71 70 74 76 73 75 71 72 77 82 85 92 100 100 96 91 66 50 47 44
33 31 31 33 32 28 34 26 31 34 41 45 45 65 60 71 77 80 83 86 83 81 79 75 75 80 79 78 81 83 80 77 91 98 100 100 100 98 98 100 98 70 48 48
34 29 33 35 30 30 27 32 37 51 52 73 43 52 66 83 89 83 82 87 86 82 79 77 79 83 81 82 84 90 87 87 94 98 100 100 100 100 100 97 100 100 62 47
37 34 29 28 31 31 30 41 69 73 87 74 50 65 74 87 83 83 87 90 91 83 82 82 82 84 84 85 88 90 93 94 92 88 100 99 99 99 100 99 98 100 99 62
50 57 33 30 29 31 39 41 64 80 80 70 49 60 80 78 78 83 84 88 86 78 81 85 80 78 90 98 97 93 99 97 91 97 96 100 100 100 100 100 99 98 99 97
53 52 38 30 30 30 34 47 39 57 63 89 78 85 86 76 82 86 87 87 82 75 84 82 80 72 75 96 100 99 98 94 94 98 95 98 97 98 98 98 100 99 100 99
45 69 40 38 32 28 35 33 74 84 92 85 86 92 88 95 91 92 95 90 80 68 73 72 80 78 64 78 98 100 99 95 96 98 93 93 98 100 100 97 100 100 98 99
54 66 51 42 40 53 53 53 59 60 77 87 96 87 88 88 91 96 94 86 78 70 71 77 77 81 65 67 79 97 95 92 95 98 96 98 97 100 100 99 99 100 100 97
47 73 85 59 42 40 48 60 62 98 74 94 94 89 85 88 88 88 87 80 78 69 72 76 74 72 71 63 60 74 80 92 100 98 97 97 99 100 97 99 98 100 100 98
54 72 87 62 62 67 78 76 89 100 98 97 97 87 87 87 89 84 83 79 79 70 68 71 70 70 61 60 58 52 67 68 88 100 97 97 97 95 96 96 100 99 100 100
52 75 72 77 71 80 84 63 67 81 97 84 90 82 98 93 95 85 85 80 79 73 70 72 70 71 65 64 62 53 41 47 66 71 90 95 96 98 95 94 96 96 99 100
60 84 82 80 72 68 69 71 66 76 80 92 76 86 84 89 94 84 78 79 80 76 70 73 71 72 67 66 60 59 46 32 30 44 60 77 95 97 97 97 96 95 98 100
59 78 91 88 64 61 68 69 70 70 72 82 79 83 80 86 81 81 80 80 79 78 71 71 72 70 70 67 65 63 56 46 30 26 29 35 52 76 89 85 96 98 98 98
68 78 94 72 61 64 80 75 74 78 76 75 86 68 88 88 82 85 83 79 76 77 71 70 73 69 68 69 66 60 63 53 46 41 30 26 25 27 34 34 40 66 54 60
74 76 84 81 82 91 62 68 70 79 68 66 76 87 80 81 82 82 80 75 75 73 70 70 71 69 66 64 59 58 56 56 56 53 46 33 24 22 21 20 22 25 26 35
61 75 90 93 81 67 60 70 73 83 78 71 82 87 91 88 85 89 80 73 73 70 71 70 69 69 66 60 57 49 48 54 48 50 48 37 28 21 16 14 14 17 18 21
57 64 74 97 92 95 64 71 66 65 90 72 78 88 91 87 94 94 80 75 75 72 70 66 56 54 53 59 56 39 42 59 55 50 47 40 32 26 27 24 23 21 21 24
76 86 96 96 94 81 68 69 66 88 77 73 74 84 90 86 79 74 77 74 72 69 65 58 40 26 29 46 54 39 38 64 65 47 33 28 29 35 38 36 32 30 28 28
61 85 92 89 96 86 78 72 79 79 83 78 74 82 89 82 83 73 71 71 86 67 58 46 27 15 13 18 32 33 29 52 51 38 34 40 38 33 26 22 27 33 38 37
72 66 82 70 76 93 92 92 87 72 70 78 77 82 81 86 75 72 71 71 95 60 51 42 20 10 10 10 14 22 34 27 27 28 34 39 41 38 41 39 38 34 40 47
85 78 98 94 92 94 99 94 81 75 72 74 72 78 84 92 92 75 66 85 92 64 50 39 15 10 9 11 16 20 26 24 16 20 32 42 44 41 36 37 44 49 62 80
86 98 97 96 92 92 99 99 93 86 84 83 85 87 95 96 78 64 77 95 95 65 48 33 13 11 10 11 14 22 27 28 23 26 30 28 28 27 31 40 35 35 65 94
71 91 92 89 75 78 82 97 100 84 84 88 87 100 100 93 80 80 95 95 77 52 42 21 15 14 13 12 13 17 20 21 24 26 35 37 37 37 36 32 34 40 59 81

GFSCGP_850_rhum_138.txt.gz
RH
28 32 36 31 30 26 30 35 39 33 28 23 26 26 62 66 68 72 70 65 61 59 60 58 57 55 52 50 50 54 56 57 58 57 58 56 52 50 50 46 44 45 39 31
32 36 28 28 32 36 38 42 45 36 28 26 30 33 64 64 73 76 74 71 70 64 62 62 60 60 60 61 61 59 61 63 65 68 69 72 76 70 71 75 51 50 46 39
33 28 24 28 33 37 40 44 43 38 28 34 34 44 74 68 75 78 78 75 76 77 75 70 66 64 64 62 63 66 70 73 75 75 74 72 72 82 87 97 83 68 58 51
30 26 29 32 35 33 43 33 35 33 40 52 35 57 57 78 82 78 80 79 80 79 78 74 69 66 68 67 68 72 75 80 78 79 88 99 100 100 91 99 99 98 86 68
31 28 29 32 30 31 37 27 33 35 44 47 46 67 62 77 85 80 84 85 83 79 80 75 71 67 71 72 76 79 87 79 78 81 88 96 99 99 98 97 99 97 100 97
32 28 31 35 32 32 30 33 38 59 56 73 45 51 55 87 78 80 82 87 83 77 77 76 69 59 64 72 78 90 83 82 82 88 99 100 100 100 100 98 99 98 97 99
38 35 31 31 32 32 33 45 69 71 87 67 51 64 56 84 84 81 88 88 79 76 79 74 72 62 55 72 93 84 87 85 86 87 99 100 100 100 100 100 99 99 98 97
49 48 36 30 30 34 35 44 64 74 87 69 54 68 70 78 79 83 85 86 74 70 74 70 74 64 54 76 87 81 88 90 87 90 96 100 100 100 100 100 100 98 100 99
57 54 37 32 32 31 34 49 40 64 64 90 76 64 88 81 86 88 88 85 76 69 72 69 68 68 53 66 73 81 93 96 93 89 91 100 99 100 100 100 100 100 100 99
41 68 42 41 34 29 35 37 62 90 95 94 80 92 80 96 92 95 94 89 76 70 70 68 63 64 56 52 58 65 79 97 97 93 97 100 100 96 95 98 98 99 100 100
50 68 52 46 42 46 51 55 69 74 82 96 93 86 84 88 90 91 92 85 76 71 74 73 62 57 52 45 44 49 63 72 91 96 97 96 97 99 95 97 99 98 100 99
48 70 81 57 44 59 53 60 79 95 93 93 96 89 91 84 85 84 91 81 77 71 76 73 66 56 50 40 36 34 37 54 70 96 100 97 97 97 96 97 99 98 98 100
51 68 84 58 56 56 73 78 88 92 96 92 98 87 86 83 87 86 88 79 76 70 73 71 66 57 54 40 32 28 25 27 41 63 89 98 99 98 97 97 98 97 97 99
55 71 68 80 71 78 85 69 64 76 97 87 75 65 74 93 94 90 87 78 78 71 76 71 66 62 54 45 37 24 25 18 19 25 43 85 99 99 98 98 98 96 97 96
66 89 85 81 79 80 78 77 72 72 71 89 69 70 56 83 90 90 83 80 80 74 74 76 67 65 58 50 41 32 25 22 15 12 15 22 28 64 84 93 97 98 98 96
63 82 91 90 69 73 75 70 68 62 65 73 66 68 73 86 87 88 80 81 80 75 71 74 68 65 64 58 50 38 29 29 22 17 14 15 16 16 18 27 46 87 96 97
69 77 93 78 62 74 77 73 69 68 71 69 81 67 90 93 86 88 83 80 77 74 70 71 71 66 67 63 58 45 37 29 27 23 20 19 16 15 17 18 19 25 34 64
76 78 80 87 80 93 60 60 67 74 72 73 74 82 81 82 84 79 78 77 76 72 70 71 72 69 65 62 54 52 42 33 34 30 28 27 26 26 19 16 14 14 16 16
66 77 90 95 84 66 58 52 80 82 74 72 75 92 93 89 84 90 81 74 73 70 70 69 65 64 62 55 48 46 38 37 36 42 38 34 31 29 27 21 19 20 17 16
67 69 80 96 95 91 66 67 67 68 84 72 79 91 92 83 94 92 83 74 73 71 69 62 51 44 48 49 44 32 34 38 41 46 46 41 37 32 30 28 25 20 15 16
79 91 94 89 92 82 63 68 65 88 71 75 75 85 88 84 78 77 80 76 71 70 64 52 33 22 24 40 39 24 30 35 43 42 37 36 35 43 42 38 30 29 21 13
69 89 96 90 94 88 75 73 80 76 77 77 76 78 83 78 79 78 78 75 72 67 56 38 19 11 13 25 33 25 21 33 38 32 31 28 27 26 25 27 36 35 26 24
76 74 82 78 79 82 75 87 80 78 74 74 75 76 77 80 81 82 75 73 93 60 48 30 12 10 11 18 31 27 26 24 29 28 26 30 32 32 33 29 37 62 49 44
73 71 85 81 79 85 85 92 83 78 72 72 73 73 80 81 78 77 77 88 93 54 48 26 11 10 12 16 22 26 28 22 25 26 26 27 28 34 32 36 62 96 96 70
73 86 93 93 86 86 85 86 80 80 74 73 77 80 82 79 81 83 78 96 95 75 49 22 12 11 11 15 18 21 21 22 20 23 28 27 25 24 25 31 36 47 77 100
88 92 94 83 72 77 75 88 94 83 80 79 81 94 98 93 94 85 90 97 95 56 44 18 14 12 12 13 15 18 18 19 19 18 22 25 25 24 24 23 26 33 36 40